TEMPEST-D (43547 NORAD) Tracking and Keplerian Element Data

This shows tracking and keplerian element data for the satellite.

Feedback or suggestion? Click here.




ElementValue
Catalog43547
NameTEMPEST-D
Epoch Orbit2394
Epoch Day350.8948955
Epoch Year2018
RAAN186.5565
Inclination51.6381
Eccentricity0.000651
Argument of Perigee150.9119
Mean Anonmoly209.2236
Mean Motion15.55989502
Decay Rate3.033E-05
L11 43547U 98067NV 18350.89489550 .00003033 00000-0 49713-4 0 9995
L22 43547 51.6381 186.5565 0006510 150.9119 209.2236 15.55989502 23944

Live tracking and technical data element details for TEMPEST-D (NORAD 43547). TEMPEST-D can be tracked NOW for your location showing map with azimuth and elevation plus other details from your city location.

Track the satellite on the map from your city or location and see movement details for azimuth, elevation, latitude, longitude, range, height, and movement on the map or in text.







IsCatalogInMostPopularTable: catalog: 43547, numindb: 55
Update: records affected: 1



GetName: 43547 TEMPEST-D

Hit Count: updated at: Mon, 17 Dec 2018 09:15:27 GMT